Weather Roundup
Issued by NWS Chicago, IL

Home | Current Version | Previous Version | Graphics & Text | Print | Product List | Glossary On
Versions: 1 2 3 4 5 6 7 8 9 10 11 12 13 14 15 16 17 18 19 20 21 22 23 24 25 26 27 28 29 30 31 32 33 34 35 36 37 38 39 40 41 42 43 44 45 46 47 48 49 50
000
NZUS59 KLOT 010421
HRRLOT

CHICAGO AREA WEATHER ROUNDUP
NATIONAL WEATHER SERVICE CHICAGO/ROMEOVILLE IL
1100 PM CDT TUE JUN 30 2015

NOTE: "FAIR" INDICATES FEW OR NO CLOUDS BELOW 12,000 FEET WITH NO
SIGNIFICANT WEATHER AND/OR OBSTRUCTIONS TO VISIBILITY.

* THESE STATIONS ARE NOT UNDER NWS QUALITY CONTROL. THEY ALSO MAY NOT
  REPORT WEATHER SUCH AS PRECIPITATION OR FOG.

ILZ005-006-012>014-019>023-010500-
NORTHEAST ILLINOIS

CITY           SKY/WX    TMP DP  RH WIND       PRES   REMARKS
OHARE          MOCLDY    59  53  80 NE7       29.92R
MIDWAY         PTCLDY    62  55  77 NE10      29.92R
AURORA         PTCLDY    63  56  78 E9        29.91R
LANSING*       PTCLDY    58  55  87 CALM      29.92S
JOLIET*        PTCLDY    63  60  88 E6        29.91S
WAUKEGAN       MOCLDY    55  52  89 N7          N/A
DUPAGE AIRPORT CLOUDY    61  55  81 NE6       29.91R
WHEELING       CLOUDY    58  52  80 NE9       29.94R
KANKAKEE*      PTCLDY    62  60  94 NE5       29.91F
MORRIS*        CLEAR     64  61  88 E7        29.89S
LEWIS AIRPORT* MOCLDY    61  56  86 E6        29.92R
NORTHERLY IS     N/A     58  53  84 N10         N/A
$$

WIZ051-052-058>065-066-070>072-010500-
SOUTHEAST WISCONSIN

CITY           SKY/WX    TMP DP  RH WIND       PRES   REMARKS
MILWAUKEE      MOCLDY    54  50  86 NE7       29.94R
KENOSHA*       CLOUDY    56  52  86 NE5       29.94R
RACINE*        CLOUDY    55  50  83 NE8       29.95R
BURLINGTON     CLOUDY    55  52  90 E5        29.94R
WAUKESHA       MOCLDY    52  50  93 E5        29.94F
WEST BEND      MOCLDY    54  50  87 CALM      29.94S
$$

INZ001>003-010>013-019-020-010500-
NORTHWEST INDIANA

CITY           SKY/WX    TMP DP  RH WIND       PRES   REMARKS
GARY*          PTCLDY   N/A N/A N/A N5        29.92S
MICHIGAN CITY* NOT AVBL
RENSSELAER*    NOT AVBL
VALPARAISO     PTCLDY    59  57  93 CALM      29.91S
$$

LMZ740>746-010500-
SOUTHERN LAKE MICHIGAN

STATION/POSITION TIME  SKY/WX   TEMP WIND        PRES    VSBY
                                AIR  DIR/SP/G
                 (UTC)          (F)  (DEG/KT/KT) (MB)    (MI)
HARRISON CRIB    0400            58   10/ 11/ 14   N/A
BURNHAM HARBOR   0400            58   10/  6/ 10   N/A
CALUMET HARBOR   0300            59  340/  5/  6   N/A
BURNS HARBOR     0300            60   30/  5/  6 1013.2R
MICHIGAN CITY    0400            61  360/  8/  9   N/A
$$

ABBREVIATIONS USED IN REMARKS
   TC - TEMPERATURE IN CELSIUS
  WCI - WIND CHILL INDEX
   HX - HEAT INDEX
  VSB - VISIBILITY
$$



USA.gov is the U.S. government's official web portal to all federal, state and local government web resources and services.